GW5331 Weather Reports


Display with metric or nautical units.
time (UTC)temp
F
wind
direction
speed
MPH
gust
MPH
rain 1hr
in
rain 24hr
in
rain mn
in
humidity
%
barometer
mb
20260502151018 75 0.0 0.0 0.00 0.00 0.00 61 1015.1
20260502150501 75 0.0 0.0 0.00 0.00 0.00 61 1015.1
20260502130334 72 0.0 0.0 0.00 0.00 0.00 64 1017.1
20260502123510 73 0.0 0.0 0.00 0.00 0.00 62 1018.0
20260502123004 74 0.0 0.0 0.00 0.00 0.00 61 1017.9
20260502122346 74 0.0 0.0 0.00 0.00 0.00 60 1017.7
20260502121834 74 0.0 0.0 0.00 0.00 0.00 60 1017.7
20260502121216 74 0.0 0.0 0.00 0.00 0.00 60 1017.3
20260502120603 74 0.0 0.0 0.00 0.00 0.00 60 1017.2
20260502115545 74 0.0 0.0 0.00 0.00 0.00 60 1017.1
20260502115028 75 0.0 0.0 0.00 0.00 0.00 60 1017.1
20260502114516 75 0.0 0.0 0.00 0.00 0.00 60 1017.0
20260502114004 75 0.0 0.0 0.00 0.00 0.00 60 1017.1
20260502113351 75 0.0 0.0 0.00 0.00 0.00 59 1017.2
20260502112840 76 0.0 0.0 0.00 0.00 0.00 59 1017.2
20260502112332 76 0.0 0.0 0.00 0.00 0.00 59 1017.4
20260502111816 76 0.0 0.0 0.00 0.00 0.00 59 1017.4
20260502111304 76 0.0 0.0 0.00 0.00 0.00 59 1017.5
20260502110752 75 0.0 0.0 0.00 0.00 0.00 60 1017.6
20260502110140 75 0.0 0.0 0.00 0.00 0.00 60 1017.7
20260502105628 75 0.0 0.0 0.00 0.00 0.00 60 1017.7
20260502105122 76 0.0 0.0 0.00 0.00 0.00 59 1017.8
20260502104605 74 0.0 0.0 0.00 0.00 0.00 61 1017.9
20260502104053 74 0.0 0.0 0.00 0.00 0.00 60 1018.0
20260502103541 74 0.0 0.0 0.00 0.00 0.00 60 1018.1
20260502103028 74 0.0 0.0 0.00 0.00 0.00 60 1018.0
20260502102517 74 0.0 0.0 0.00 0.00 0.00 60 1018.1
20260502102010 74 0.0 0.0 0.00 0.00 0.00 60 1018.1
20260502101453 74 0.0 0.0 0.00 0.00 0.00 60 1018.0
20260502100840 74 0.0 0.0 0.00 0.00 0.00 60 1018.1
20260502100121 74 0.0 0.0 0.00 0.00 0.00 60 1017.9
20260502091131 77 0.0 0.0 0.00 0.00 0.00 58 1018.8
20260502090513 78 0.0 0.0 0.00 0.00 0.00 57 1018.8
20260502071202 77 0.0 0.0 0.00 0.00 0.00 59 1018.0
20260502070650 77 0.0 0.0 0.00 0.00 0.00 59 1017.9
20260502070144 77 0.0 0.0 0.00 0.00 0.00 59 1017.9
20260502065626 77 0.0 0.0 0.00 0.00 0.00 60 1017.7
20260502065115 77 0.0 0.0 0.00 0.00 0.00 60 1017.7
20260502064502 77 0.0 0.0 0.00 0.00 0.00 59 1017.5
20260502063950 77 0.0 0.0 0.00 0.00 0.00 60 1017.4
20260502063438 77 0.0 0.0 0.00 0.00 0.00 60 1017.1
20260502062932 76 0.0 0.0 0.00 0.00 0.00 60 1017.3
20260502062414 76 0.0 0.0 0.00 0.00 0.00 60 1017.3
20260502061902 76 0.0 0.0 0.00 0.00 0.00 60 1017.2
20260502061351 76 0.0 0.0 0.00 0.00 0.00 60 1017.1
20260502060839 76 0.0 0.0 0.00 0.00 0.00 60 1017.1
20260502060327 76 0.0 0.0 0.00 0.00 0.00 60 1017.0
20260502055821 76 0.0 0.0 0.00 0.00 0.00 60 1016.9
20260502055305 76 0.0 0.0 0.00 0.00 0.00 60 1016.8
20260502054752 76 0.0 0.0 0.00 0.00 0.00 60 1016.6
20260502054240 76 0.0 0.0 0.00 0.00 0.00 60 1016.4
20260502053627 76 0.0 0.0 0.00 0.00 0.00 60 1016.3
20260502053115 76 0.0 0.0 0.00 0.00 0.00 61 1016.1
20260502052609 76 0.0 0.0 0.00 0.00 0.00 60 1016.0
20260502052052 76 0.0 0.0 0.00 0.00 0.00 60 1015.8
20260502051540 76 0.0 0.0 0.00 0.00 0.00 61 1015.8
20260502051027 75 0.0 0.0 0.00 0.00 0.00 61 1015.8
20260502050516 75 0.0 0.0 0.00 0.00 0.00 60 1015.8
20260502050004 75 0.0 0.0 0.00 0.00 0.00 60 1015.8
20260502045458 75 0.0 0.0 0.00 0.00 0.00 60 1015.8
20260502044940 75 0.0 0.0 0.00 0.00 0.00 60 1015.9
20260502044428 75 0.0 0.0 0.00 0.00 0.00 60 1015.9
20260502043916 75 0.0 0.0 0.00 0.00 0.00 60 1016.0
20260502043404 75 0.0 0.0 0.00 0.00 0.00 61 1016.0
20260502042852 75 0.0 0.0 0.00 0.00 0.00 60 1016.2
20260502042347 75 0.0 0.0 0.00 0.00 0.00 60 1016.2
20260502041829 75 0.0 0.0 0.00 0.00 0.00 60 1016.2
20260502041317 75 0.0 0.0 0.00 0.00 0.00 60 1016.2
20260502040804 75 0.0 0.0 0.00 0.00 0.00 60 1016.3
20260502040253 75 0.0 0.0 0.00 0.00 0.00 61 1016.5
20260502035741 75 0.0 0.0 0.00 0.00 0.00 61 1016.6
20260502035234 75 0.0 0.0 0.00 0.00 0.00 61 1016.6
20260502034718 75 0.0 0.0 0.00 0.00 0.00 60 1016.7
20260502034105 75 0.0 0.0 0.00 0.00 0.00 60 1016.9
20260502033553 75 0.0 0.0 0.00 0.00 0.00 60 1017.0
20260502032934 75 0.0 0.0 0.00 0.00 0.00 60 1017.0
20260502032423 75 0.0 0.0 0.00 0.00 0.00 60 1017.0
20260502031917 75 0.0 0.0 0.00 0.00 0.00 60 1017.0
20260502031359 75 0.0 0.0 0.00 0.00 0.00 60 1017.0
20260502030848 75 0.0 0.0 0.00 0.00 0.00 61 1017.1
20260502030336 75 0.0 0.0 0.00 0.00 0.00 61 1017.1
20260502025825 75 0.0 0.0 0.00 0.00 0.00 61 1017.2
20260502025111 75 0.0 0.0 0.00 0.00 0.00 61 1017.2
20260502024504 75 0.0 0.0 0.00 0.00 0.00 61 1017.1
20260502023946 75 0.0 0.0 0.00 0.00 0.00 61 1017.0
20260502023435 75 0.0 0.0 0.00 0.00 0.00 61 1016.9
20260502022923 75 0.0 0.0 0.00 0.00 0.00 61 1016.8
20260502022411 75 0.0 0.0 0.00 0.00 0.00 61 1017.0
20260502021859 75 0.0 0.0 0.00 0.00 0.00 61 1017.1
20260502020908 75 0.0 0.0 0.00 0.00 0.00 61 1017.1
20260502020351 75 0.0 0.0 0.00 0.00 0.00 61 1017.1
20260502015840 75 0.0 0.0 0.00 0.00 0.00 61 1017.3
20260502015328 75 0.0 0.0 0.00 0.00 0.00 61 1017.5
20260502014816 75 0.0 0.0 0.00 0.00 0.00 61 1017.5
20260502014158 76 0.0 0.0 0.00 0.00 0.00 61 1017.6
20260502013651 76 0.0 0.0 0.00 0.00 0.00 61 1017.7
20260502013134 76 0.0 0.0 0.00 0.00 0.00 61 1017.9
20260502012622 76 0.0 0.0 0.00 0.00 0.00 61 1018.1
20260502012110 76 0.0 0.0 0.00 0.00 0.00 62 1018.0
20260502011557 76 0.0 0.0 0.00 0.00 0.00 62 1017.7
20260502011046 75 0.0 0.0 0.00 0.00 0.00 61 1017.7
20260502010540 75 0.0 0.0 0.00 0.00 0.00 62 1017.6
20260502010022 75 0.0 0.0 0.00 0.00 0.00 62 1017.6